sat.trackr.live / text

‹ back to catalog

STARLINK-30853

NORAD 58236 · 2023-171G

PAYLOAD ACTIVE UNKNOWN

§ Identity

Operator
Country
US
Launch date
2023-11-08
Launch site
AFETR
Launch vehicle
Mass (kg)
RCS (m²)

Purposes: comms

External: N2YO · Heavens-Above · Gunter

§ Orbital elements

Epoch: 2026-09-20T16:31:26.068224Z

Period
94.27 min
Inclination
43.0022°
Eccentricity
0.0001306
Mean motion
15.27584070 rev/d
Perigee alt
482.1 km
Apogee alt
483.9 km
Semi-major
6,861.2 km
B*
5.6522e-5
RAAN
264.2787°
Arg perigee
267.6645°
Mean anomaly
92.4057°
Rev number
15,955

§ Raw data

STARLINK-308531 58236U 23171G   26263.68849616  .00001294  00000+0  56522-4 0  99942 58236  43.0022 264.2787 0001306 267.6645  92.4057 15.27584070159550

JSON: /api/v1/satellites/58236 · /tle

For live sub-satellite position, see the globe view (requires WebGL).

§ Visibility from observer

Set your observer location to see the next 7 days of passes ≥ 10°. The values pass through the URL so the page stays shareable.

No JS? Fill the form by hand. The geolocation button needs JavaScript.